Location: La Estación
(39.9833°N, 3.9500°W)
Time: 15:31:50
(UTC+00:00)

Cosmos 614 Rocket - Pass Details

Date: 14 June 2025
Orbit: 729 x 757 km, 74.1° (Epoch: 19 July)

Event Time Altitude Azimuth Distance (km) Brightness Sun altitude
Rises 21:04:11 0° 196° (SSW) 3,193 6.9 -12.5°
Reaches altitude 10° 21:06:32 10° 195° (SSW) 2,270 6.1 -12.8°
Maximum altitude 21:11:42 85° 108° (ESE) 759 3.9 -13.5°
Drops below altitude 10° 21:16:51 10° 20° (NNE) 2,270 6.8 -14.2°
Sets 21:19:13 0° 20° (NNE) 3,193 7.6 -14.5°
